Location: Passau
(48.5830°N, 13.4830°E)
Time: 23:59:39
(UTC+02:00)

Transit 2A - Pass Details

Date: 08 August 2021
Orbit: 595 x 964 km, 66.7° (Epoch: 17 September)

Event Time Altitude Azimuth Distance (km) Brightness Sun altitude
Rises 04:57:48 0° 182° (S) 2,836 8.6 -8.2°
Reaches altitude 10° 05:00:14 10° 170° (S) 1,961 7.9 -7.9°
Maximum altitude 05:03:56 27° 112° (ESE) 1,214 7.5 -7.4°
Drops below altitude 10° 05:07:54 10° 54° (NE) 2,099 10.1 -6.8°
Sets 05:10:34 0° 43° (NE) 3,078 11.1 -6.5°
